GW2980 Weather Reports


Display with metric or nautical units.
time (UTC)temp
F
wind
direction
speed
MPH
gust
MPH
rain 1hr
in
rain 24hr
in
rain mn
in
humidity
%
barometer
mb
20260509164536 65 0.0 0.0 0.00 0.00 0.00 52 942.0
20260509164236 65 0.0 0.0 0.00 0.00 0.00 52 942.0
20260509163936 65 0.0 0.0 0.00 0.00 0.00 52 942.0
20260509163635 65 0.0 0.0 0.00 0.00 0.00 52 942.0
20260509163336 65 0.0 0.0 0.00 0.00 0.00 52 942.0
20260509163035 65 0.0 0.0 0.00 0.00 0.00 52 942.0
20260509162736 65 0.0 0.0 0.00 0.00 0.00 52 942.0
20260509162136 65 0.0 0.0 0.00 0.00 0.00 52 942.0
20260509161836 65 0.0 0.0 0.00 0.00 0.00 52 942.0
20260509161536 65 0.0 0.0 0.00 0.00 0.00 52 942.0
20260509161235 65 0.0 0.0 0.00 0.00 0.00 52 942.0
20260509160936 65 0.0 0.0 0.00 0.00 0.00 52 942.8
20260509160635 65 0.0 0.0 0.00 0.00 0.00 52 942.8
20260509160336 65 0.0 0.0 0.00 0.00 0.00 52 942.8
20260509155736 66 0.0 0.0 0.00 0.00 0.00 52 942.0
20260509155436 66 0.0 0.0 0.00 0.00 0.00 52 942.0
20260509155136 66 0.0 0.0 0.00 0.00 0.00 52 942.0
20260509154536 67 0.0 0.0 0.00 0.00 0.00 50 943.0
20260509154236 67 0.0 0.0 0.00 0.00 0.00 50 943.0
20260509153635 67 0.0 0.0 0.00 0.00 0.00 47 942.0
20260509153036 67 0.0 0.0 0.00 0.00 0.00 47 942.0
20260509152735 68 0.0 0.0 0.00 0.00 0.00 47 942.8
20260509152435 68 0.0 0.0 0.00 0.00 0.00 47 942.8
20260509152135 68 0.0 0.0 0.00 0.00 0.00 47 942.8
20260509151836 68 0.0 0.0 0.00 0.00 0.00 47 942.8
20260509151536 68 0.0 0.0 0.00 0.00 0.00 47 942.8
20260509151235 68 0.0 0.0 0.00 0.00 0.00 47 942.8
20260509150936 68 0.0 0.0 0.00 0.00 0.00 47 942.8
20260509150635 68 0.0 0.0 0.00 0.00 0.00 47 942.8
20260509150335 68 0.0 0.0 0.00 0.00 0.00 47 942.8
20260509150036 68 0.0 0.0 0.00 0.00 0.00 46 942.0
20260509145735 68 0.0 0.0 0.00 0.00 0.00 46 942.0
20260509145136 68 0.0 0.0 0.00 0.00 0.00 46 942.0
20260509144535 69 0.0 0.0 0.00 0.00 0.00 46 942.0
20260509144236 69 0.0 0.0 0.00 0.00 0.00 46 942.0
20260509143936 69 0.0 0.0 0.00 0.00 0.00 46 942.0
20260509143635 69 0.0 0.0 0.00 0.00 0.00 46 942.0
20260509143336 69 0.0 0.0 0.00 0.00 0.00 46 942.0
20260509143036 69 0.0 0.0 0.00 0.00 0.00 47 943.0
20260509142136 68 0.0 0.0 0.00 0.00 0.00 48 943.1
20260509141836 68 0.0 0.0 0.00 0.00 0.00 48 943.1
20260509141236 68 0.0 0.0 0.00 0.00 0.00 48 943.1
20260509140935 68 0.0 0.0 0.00 0.00 0.00 48 943.1
20260509140635 67 0.0 0.0 0.00 0.00 0.00 48 943.0
20260509140335 67 0.0 0.0 0.00 0.00 0.00 48 943.0
20260509140036 67 0.0 0.0 0.00 0.00 0.00 48 943.0
20260509135736 67 0.0 0.0 0.00 0.00 0.00 48 943.0
20260509135136 66 0.0 0.0 0.00 0.00 0.00 49 943.0
20260509134836 66 0.0 0.0 0.00 0.00 0.00 50 943.0
20260509134536 66 0.0 0.0 0.00 0.00 0.00 50 943.0
20260509134235 66 0.0 0.0 0.00 0.00 0.00 50 943.0
20260509133935 67 0.0 0.0 0.00 0.00 0.00 50 943.0
20260509133635 67 0.0 0.0 0.00 0.00 0.00 50 943.0
20260509133336 67 0.0 0.0 0.00 0.00 0.00 50 943.0
20260509133036 67 0.0 0.0 0.00 0.00 0.00 50 943.0
20260509132736 68 0.0 0.0 0.00 0.00 0.00 52 943.0
20260509131836 69 0.0 0.0 0.00 0.00 0.00 52 943.0
20260509131236 69 0.0 0.0 0.00 0.00 0.00 54 943.7
20260509130936 69 0.0 0.0 0.00 0.00 0.00 54 943.7
20260509130636 68 0.0 0.0 0.00 0.00 0.00 55 943.0
20260509130336 68 0.0 0.0 0.00 0.00 0.00 55 943.0
20260509130036 68 0.0 0.0 0.00 0.00 0.00 54 944.0
20260509125735 67 0.0 0.0 0.00 0.00 0.00 55 943.0
20260509125436 67 0.0 0.0 0.00 0.00 0.00 55 943.0
20260509125136 68 0.0 0.0 0.00 0.00 0.00 51 943.0
20260509124536 68 0.0 0.0 0.00 0.00 0.00 50 943.8
20260509124236 68 0.0 0.0 0.00 0.00 0.00 46 943.0
20260509123935 68 0.0 0.0 0.00 0.00 0.00 46 943.0
20260509123336 69 0.0 0.0 0.00 0.00 0.00 44 943.0
20260509123036 69 0.0 0.0 0.00 0.00 0.00 44 943.0
20260509122735 70 0.0 0.0 0.00 0.00 0.00 42 943.0
20260509122435 71 0.0 0.0 0.00 0.00 0.00 41 943.0
20260509121835 72 0.0 0.0 0.00 0.00 0.00 40 943.0
20260509121535 72 0.0 0.0 0.00 0.00 0.00 40 943.0
20260509121235 72 0.0 0.0 0.00 0.00 0.00 40 943.0
20260509120936 72 0.0 0.0 0.00 0.00 0.00 41 943.0
20260509120635 72 0.0 0.0 0.00 0.00 0.00 41 943.0
20260509120036 72 0.0 0.0 0.00 0.00 0.00 41 943.0
20260509115435 72 0.0 0.0 0.00 0.00 0.00 41 943.0
20260509115136 72 0.0 0.0 0.00 0.00 0.00 41 943.1
20260509114835 71 0.0 0.0 0.00 0.00 0.00 43 943.0
20260509114536 71 0.0 0.0 0.00 0.00 0.00 43 943.0
20260509114235 71 0.0 0.0 0.00 0.00 0.00 43 943.0
20260509113936 71 0.0 0.0 0.00 0.00 0.00 43 943.0
20260509113635 71 0.0 0.0 0.00 0.00 0.00 43 943.0
20260509113336 71 0.0 0.0 0.00 0.00 0.00 43 943.0
20260509113036 71 0.0 0.0 0.00 0.00 0.00 43 943.0
20260509112736 71 0.0 0.0 0.00 0.00 0.00 43 943.0
20260509112435 71 0.0 0.0 0.00 0.00 0.00 43 943.0
20260509112137 72 0.0 0.0 0.00 0.00 0.00 42 943.0
20260509111836 72 0.0 0.0 0.00 0.00 0.00 42 943.0
20260509111536 72 0.0 0.0 0.00 0.00 0.00 42 943.0
20260509110936 72 0.0 0.0 0.00 0.00 0.00 43 943.3
20260509110635 72 0.0 0.0 0.00 0.00 0.00 43 943.3
20260509110036 72 0.0 0.0 0.00 0.00 0.00 43 943.3
20260509105736 71 0.0 0.0 0.00 0.00 0.00 43 943.0
20260509105436 71 0.0 0.0 0.00 0.00 0.00 43 943.0
20260509105136 71 0.0 0.0 0.00 0.00 0.00 43 943.0
20260509104836 71 0.0 0.0 0.00 0.00 0.00 43 943.0
20260509104535 71 0.0 0.0 0.00 0.00 0.00 43 943.0
20260509104236 72 0.0 0.0 0.00 0.00 0.00 43 943.0
20260509103936 72 0.0 0.0 0.00 0.00 0.00 43 943.0
20260509103635 71 0.0 0.0 0.00 0.00 0.00 42 943.0
20260509103336 71 0.0 0.0 0.00 0.00 0.00 42 943.0
20260509103035 71 0.0 0.0 0.00 0.00 0.00 42 943.0
20260509102735 72 0.0 0.0 0.00 0.00 0.00 43 943.0
20260509102435 72 0.0 0.0 0.00 0.00 0.00 43 943.0
20260509102135 72 0.0 0.0 0.00 0.00 0.00 43 943.0
20260509101835 72 0.0 0.0 0.00 0.00 0.00 43 943.0
20260509101536 73 0.0 0.0 0.00 0.00 0.00 43 943.0
20260509101236 72 0.0 0.0 0.00 0.00 0.00 43 943.0
20260509100936 74 0.0 0.0 0.00 0.00 0.00 42 943.0
20260509100635 75 0.0 0.0 0.00 0.00 0.00 41 943.7
20260509100336 75 0.0 0.0 0.00 0.00 0.00 41 943.7
20260509100035 77 0.0 0.0 0.00 0.00 0.00 39 943.0
20260509095736 79 0.0 0.0 0.00 0.00 0.00 37 943.0
20260509095436 80 0.0 0.0 0.00 0.00 0.00 36 943.0
20260509095136 81 0.0 0.0 0.00 0.00 0.00 35 943.0
20260509094836 87 0.0 0.0 0.00 0.00 0.00 32 943.0
20260509094235 92 0.0 0.0 0.00 0.00 0.00 29 943.0
20260509093935 94 0.0 0.0 0.00 0.00 0.00 28 943.0
20260509093636 96 0.0 0.0 0.00 0.00 0.00 28 943.0
20260509093336 96 0.0 0.0 0.00 0.00 0.00 28 943.0
20260509093036 97 0.0 0.0 0.00 0.00 0.00 27 943.0
20260509092736 97 0.0 0.0 0.00 0.00 0.00 27 943.0
20260509092135 99 0.0 0.0 0.00 0.00 0.00 27 943.0
20260509091836 100 0.0 0.0 0.00 0.00 0.00 27 943.0
20260509091536 99 0.0 0.0 0.00 0.00 0.00 28 943.0
20260509091236 97 0.0 0.0 0.00 0.00 0.00 26 943.0
20260509090936 97 0.0 0.0 0.00 0.00 0.00 29 943.0
20260509090636 95 0.0 0.0 0.00 0.00 0.00 30 943.0
20260509090336 91 0.0 0.0 0.00 0.00 0.00 33 943.0
20260509085735 88 0.0 0.0 0.00 0.00 0.00 35 943.0
20260509085435 84 0.0 0.0 0.00 0.00 0.00 37 943.0
20260509084835 85 0.0 0.0 0.00 0.00 0.00 37 943.0
20260509084535 84 0.0 0.0 0.00 0.00 0.00 36 943.0
20260509084235 84 0.0 0.0 0.00 0.00 0.00 37 943.0
20260509083936 86 0.0 0.0 0.00 0.00 0.00 36 943.0
20260509083636 91 0.0 0.0 0.00 0.00 0.00 32 943.0
20260509083335 93 0.0 0.0 0.00 0.00 0.00 33 943.0
20260509082735 92 0.0 0.0 0.00 0.00 0.00 34 943.0
20260509082436 91 0.0 0.0 0.00 0.00 0.00 35 943.0
20260509082135 90 0.0 0.0 0.00 0.00 0.00 36 943.0
20260509081836 89 0.0 0.0 0.00 0.00 0.00 37 943.0
20260509081535 85 0.0 0.0 0.00 0.00 0.00 39 943.0
20260509080936 84 0.0 0.0 0.00 0.00 0.00 38 943.0
20260509080336 85 0.0 0.0 0.00 0.00 0.00 42 943.0
20260509080036 80 0.0 0.0 0.00 0.00 0.00 46 943.0
20260509075736 75 0.0 0.0 0.00 0.00 0.00 50 943.0
20260509075436 71 0.0 0.0 0.00 0.00 0.00 52 943.0
20260509075136 73 0.0 0.0 0.00 0.00 0.00 54 943.0
20260509074836 72 0.0 0.0 0.00 0.00 0.00 57 943.0
20260509074536 70 0.0 0.0 0.00 0.00 0.00 59 943.0
20260509074236 64 0.0 0.0 0.00 0.00 0.00 67 944.0
20260509073936 60 0.0 0.0 0.00 0.00 0.00 71 944.0
20260509073635 57 0.0 0.0 0.00 0.00 0.00 73 944.0
20260509073336 57 0.0 0.0 0.00 0.00 0.00 73 944.0
20260509073036 57 0.0 0.0 0.00 0.00 0.00 73 944.0
20260509072735 57 0.0 0.0 0.00 0.00 0.00 73 944.0
20260509072435 58 0.0 0.0 0.00 0.00 0.00 71 944.0
20260509072136 59 0.0 0.0 0.00 0.00 0.00 71 944.5
20260509071836 59 0.0 0.0 0.00 0.00 0.00 71 944.5
20260509071536 59 0.0 0.0 0.00 0.00 0.00 71 944.5
20260509071236 60 0.0 0.0 0.00 0.00 0.00 70 944.0
20260509070936 60 0.0 0.0 0.00 0.00 0.00 70 944.0
20260509070636 60 0.0 0.0 0.00 0.00 0.00 70 944.0
20260509065435 54 0.0 0.0 0.00 0.00 0.00 79 944.0
20260509065136 54 0.0 0.0 0.00 0.00 0.00 79 944.0
20260509064835 54 0.0 0.0 0.00 0.00 0.00 79 944.0
20260509063936 53 0.0 0.0 0.00 0.00 0.00 80 944.8
20260509063635 53 0.0 0.0 0.00 0.00 0.00 80 944.8
20260509063336 53 0.0 0.0 0.00 0.00 0.00 80 944.8
20260509063036 53 0.0 0.0 0.00 0.00 0.00 80 944.8
20260509062436 53 0.0 0.0 0.00 0.00 0.00 80 944.8
20260509062136 53 0.0 0.0 0.00 0.00 0.00 80 944.8
20260509061836 52 0.0 0.0 0.00 0.00 0.00 80 944.0
20260509061536 52 0.0 0.0 0.00 0.00 0.00 80 944.0
20260509060936 52 0.0 0.0 0.00 0.00 0.00 80 944.0
20260509060636 52 0.0 0.0 0.00 0.00 0.00 80 944.0
20260509060336 52 0.0 0.0 0.00 0.00 0.00 80 944.0
20260509060036 52 0.0 0.0 0.00 0.00 0.00 80 944.0
20260509055736 52 0.0 0.0 0.00 0.00 0.00 80 944.0
20260509055435 52 0.0 0.0 0.00 0.00 0.00 80 944.0
20260509055136 52 0.0 0.0 0.00 0.00 0.00 80 944.0
20260509054835 52 0.0 0.0 0.00 0.00 0.00 80 944.0
20260509054535 52 0.0 0.0 0.00 0.00 0.00 80 944.0
20260509054236 53 0.0 0.0 0.00 0.00 0.00 80 944.6
20260509053936 53 0.0 0.0 0.00 0.00 0.00 80 944.6
20260509053636 53 0.0 0.0 0.00 0.00 0.00 80 944.6
20260509053036 53 0.0 0.0 0.00 0.00 0.00 80 944.6
20260509052736 53 0.0 0.0 0.00 0.00 0.00 80 944.6
20260509052436 52 0.0 0.0 0.00 0.00 0.00 81 944.0
20260509051836 52 0.0 0.0 0.00 0.00 0.00 81 944.0
20260509051535 52 0.0 0.0 0.00 0.00 0.00 81 944.0
20260509051236 52 0.0 0.0 0.00 0.00 0.00 80 944.0
20260509050936 52 0.0 0.0 0.00 0.00 0.00 80 944.0
20260509050636 52 0.0 0.0 0.00 0.00 0.00 80 944.0
20260509050335 52 0.0 0.0 0.00 0.00 0.00 80 944.0
20260509050036 52 0.0 0.0 0.00 0.00 0.00 80 944.0
20260509045736 52 0.0 0.0 0.00 0.00 0.00 80 944.0
20260509045135 52 0.0 0.0 0.00 0.00 0.00 80 944.0
20260509044535 52 0.0 0.0 0.00 0.00 0.00 80 944.6
20260509043935 52 0.0 0.0 0.00 0.00 0.00 80 944.6
20260509043636 52 0.0 0.0 0.00 0.00 0.00 80 944.6
20260509043336 52 0.0 0.0 0.00 0.00 0.00 80 944.6
20260509043036 52 0.0 0.0 0.00 0.00 0.00 80 944.6
20260509042736 52 0.0 0.0 0.00 0.00 0.00 79 944.0
20260509042435 52 0.0 0.0 0.00 0.00 0.00 79 944.0
20260509042136 53 0.0 0.0 0.00 0.00 0.00 77 944.0
20260509041835 53 0.0 0.0 0.00 0.00 0.00 77 944.0
20260509041236 53 0.0 0.0 0.00 0.00 0.00 76 944.0
20260509040935 53 0.0 0.0 0.00 0.00 0.00 76 944.0
20260509040635 53 0.0 0.0 0.00 0.00 0.00 76 944.0
20260509040335 53 0.0 0.0 0.00 0.00 0.00 76 944.0
20260509040036 53 0.0 0.0 0.00 0.00 0.00 76 944.0
20260509035736 53 0.0 0.0 0.00 0.00 0.00 76 944.0
20260509035436 53 0.0 0.0 0.00 0.00 0.00 76 944.0
20260509035135 53 0.0 0.0 0.00 0.00 0.00 76 944.0
20260509034536 52 0.0 0.0 0.00 0.00 0.00 77 945.0
20260509034236 52 0.0 0.0 0.00 0.00 0.00 77 945.0
20260509033936 52 0.0 0.0 0.00 0.00 0.00 75 945.0
20260509033635 53 0.0 0.0 0.00 0.00 0.00 75 944.0
20260509033336 53 0.0 0.0 0.00 0.00 0.00 75 944.0
20260509033035 52 0.0 0.0 0.00 0.00 0.00 76 945.0
20260509032435 52 0.0 0.0 0.00 0.00 0.00 76 945.0
20260509032136 52 0.0 0.0 0.00 0.00 0.00 76 945.0
20260509031836 52 0.0 0.0 0.00 0.00 0.00 76 945.0
20260509031536 52 0.0 0.0 0.00 0.00 0.00 76 945.0
20260509031236 51 0.0 0.0 0.00 0.00 0.00 76 945.0
20260509030939 51 0.0 0.0 0.00 0.00 0.00 76 945.0
20260509030635 51 0.0 0.0 0.00 0.00 0.00 76 945.0
20260509030335 51 0.0 0.0 0.00 0.00 0.00 76 945.0
20260509030036 51 0.0 0.0 0.00 0.00 0.00 76 945.0
20260509025436 51 0.0 0.0 0.00 0.00 0.00 77 945.0
20260509025136 51 0.0 0.0 0.00 0.00 0.00 77 945.0
20260509024836 51 0.0 0.0 0.00 0.00 0.00 77 945.0
20260509024536 51 0.0 0.0 0.00 0.00 0.00 78 944.0
20260509024235 51 0.0 0.0 0.00 0.00 0.00 78 944.0
20260509023935 51 0.0 0.0 0.00 0.00 0.00 78 944.0
20260509023635 51 0.0 0.0 0.00 0.00 0.00 78 944.0
20260509023335 51 0.0 0.0 0.00 0.00 0.00 78 944.0
20260509022735 51 0.0 0.0 0.00 0.00 0.00 81 945.0
20260509022435 51 0.0 0.0 0.00 0.00 0.00 81 945.0
20260509022136 51 0.0 0.0 0.00 0.00 0.00 81 945.0
20260509021835 51 0.0 0.0 0.00 0.00 0.00 81 945.0
20260509021535 51 0.0 0.0 0.00 0.00 0.00 81 945.0
20260509020935 51 0.0 0.0 0.00 0.00 0.00 81 945.0
20260509020636 51 0.0 0.0 0.00 0.00 0.00 81 945.0
20260509020036 51 0.0 0.0 0.00 0.00 0.00 81 945.0
20260509015736 51 0.0 0.0 0.00 0.00 0.00 81 945.0
20260509015436 51 0.0 0.0 0.00 0.00 0.00 81 944.0
20260509015136 51 0.0 0.0 0.00 0.00 0.00 81 944.0
20260509014835 51 0.0 0.0 0.00 0.00 0.00 81 944.0
20260509014536 51 0.0 0.0 0.00 0.00 0.00 81 944.0
20260509014236 51 0.0 0.0 0.00 0.00 0.00 81 944.0
20260509013936 52 0.0 0.0 0.00 0.00 0.00 79 944.0
20260509013636 52 0.0 0.0 0.00 0.00 0.00 79 944.0
20260509013336 52 0.0 0.0 0.00 0.00 0.00 79 945.0
20260509013035 52 0.0 0.0 0.00 0.00 0.00 79 945.0
20260509012736 52 0.0 0.0 0.00 0.00 0.00 80 945.0
20260509012436 52 0.0 0.0 0.00 0.00 0.00 80 945.0
20260509012136 52 0.0 0.0 0.00 0.00 0.00 80 945.0
20260509011836 52 0.0 0.0 0.00 0.00 0.00 80 945.0
20260509011536 52 0.0 0.0 0.00 0.00 0.00 80 945.0
20260509011236 52 0.0 0.0 0.00 0.00 0.00 78 945.0
20260509010935 52 0.0 0.0 0.00 0.00 0.00 78 945.0
20260509010636 52 0.0 0.0 0.00 0.00 0.00 78 945.0
20260509010336 52 0.0 0.0 0.00 0.00 0.00 78 945.0
20260509010036 54 0.0 0.0 0.00 0.00 0.00 76 945.7
20260509005436 54 0.0 0.0 0.00 0.00 0.00 76 945.0
20260509005135 54 0.0 0.0 0.00 0.00 0.00 76 945.0
20260509004836 54 0.0 0.0 0.00 0.00 0.00 76 945.0
20260509004536 54 0.0 0.0 0.00 0.00 0.00 76 945.0
20260509004236 53 0.0 0.0 0.00 0.00 0.00 76 946.0
20260509003936 53 0.0 0.0 0.00 0.00 0.00 76 946.0
20260509003336 53 0.0 0.0 0.00 0.00 0.00 76 946.0
20260509002735 53 0.0 0.0 0.00 0.00 0.00 76 946.0
20260509002435 54 0.0 0.0 0.00 0.00 0.00 76 946.0
20260509002136 54 0.0 0.0 0.00 0.00 0.00 76 946.0
20260509001836 54 0.0 0.0 0.00 0.00 0.00 76 946.0
20260509001536 54 0.0 0.0 0.00 0.00 0.00 76 946.0
20260509001235 54 0.0 0.0 0.00 0.00 0.00 76 946.0
20260509000635 54 0.0 0.0 0.00 0.00 0.00 76 946.0
20260509000335 53 0.0 0.0 0.00 0.00 0.00 76 946.1
20260509000036 53 0.0 0.0 0.00 0.00 0.00 78 946.0
20260508235736 53 0.0 0.0 0.00 0.00 0.00 78 946.0
20260508235436 53 0.0 0.0 0.00 0.00 0.00 78 946.0
20260508235136 53 0.0 0.0 0.00 0.00 0.00 78 946.0
20260508234835 53 0.0 0.0 0.00 0.00 0.00 78 946.0
20260508234536 53 0.0 0.0 0.00 0.00 0.00 78 946.0
20260508233935 53 0.0 0.0 0.00 0.00 0.00 78 946.0
20260508233636 53 0.0 0.0 0.00 0.00 0.00 78 946.0
20260508233036 53 0.0 0.0 0.00 0.00 0.00 78 946.0
20260508232735 53 0.0 0.0 0.00 0.00 0.00 78 946.4
20260508232436 53 0.0 0.0 0.00 0.00 0.00 78 946.4
20260508232135 53 0.0 0.0 0.00 0.00 0.00 78 946.4
20260508231835 53 0.0 0.0 0.00 0.00 0.00 78 946.4
20260508231535 53 0.0 0.0 0.00 0.00 0.00 78 946.4
20260508231235 53 0.0 0.0 0.00 0.00 0.00 78 946.4
20260508230935 53 0.0 0.0 0.00 0.00 0.00 78 946.4
20260508230336 53 0.0 0.0 0.00 0.00 0.00 79 946.0
20260508230036 53 0.0 0.0 0.00 0.00 0.00 79 946.0
20260508225735 53 0.0 0.0 0.00 0.00 0.00 79 946.0
20260508225435 53 0.0 0.0 0.00 0.00 0.00 79 946.0
20260508225136 53 0.0 0.0 0.00 0.00 0.00 79 946.0
20260508224836 53 0.0 0.0 0.00 0.00 0.00 79 946.0
20260508224536 53 0.0 0.0 0.00 0.00 0.00 79 946.0
20260508224236 53 0.0 0.0 0.00 0.00 0.00 79 946.0
20260508223936 53 0.0 0.0 0.00 0.00 0.00 79 946.0
20260508223635 53 0.0 0.0 0.00 0.00 0.00 79 946.0
20260508223335 53 0.0 0.0 0.00 0.00 0.00 78 946.7
20260508223035 53 0.0 0.0 0.00 0.00 0.00 78 946.7
20260508222736 53 0.0 0.0 0.00 0.00 0.00 78 946.7
20260508222435 53 0.0 0.0 0.00 0.00 0.00 78 946.7
20260508222135 53 0.0 0.0 0.00 0.00 0.00 78 946.7
20260508221836 53 0.0 0.0 0.00 0.00 0.00 78 946.7
20260508221536 53 0.0 0.0 0.00 0.00 0.00 78 946.7
20260508221236 53 0.0 0.0 0.00 0.00 0.00 78 946.7
20260508220936 53 0.0 0.0 0.00 0.00 0.00 78 946.7
20260508215735 54 0.0 0.0 0.00 0.00 0.00 76 946.0
20260508215436 54 0.0 0.0 0.00 0.00 0.00 76 946.0
20260508215136 54 0.0 0.0 0.00 0.00 0.00 76 946.0
20260508213935 54 0.0 0.0 0.00 0.00 0.00 76 946.0
20260508213635 55 0.0 0.0 0.00 0.00 0.00 74 947.0
20260508213336 55 0.0 0.0 0.00 0.00 0.00 74 947.0
20260508213036 55 0.0 0.0 0.00 0.00 0.00 74 947.0
20260508212736 55 0.0 0.0 0.00 0.00 0.00 74 947.0
20260508212436 55 0.0 0.0 0.00 0.00 0.00 74 947.0
20260508211836 55 0.0 0.0 0.00 0.00 0.00 74 947.0
20260508211536 55 0.0 0.0 0.00 0.00 0.00 74 947.0
20260508211236 55 0.0 0.0 0.00 0.00 0.00 74 946.9
20260508210636 55 0.0 0.0 0.00 0.00 0.00 72 946.0
20260508210335 55 0.0 0.0 0.00 0.00 0.00 72 946.0
20260508205736 55 0.0 0.0 0.00 0.00 0.00 72 946.0
20260508205435 55 0.0 0.0 0.00 0.00 0.00 72 946.0
20260508205136 55 0.0 0.0 0.00 0.00 0.00 72 946.0
20260508204836 55 0.0 0.0 0.00 0.00 0.00 72 946.0
20260508204536 55 0.0 0.0 0.00 0.00 0.00 72 946.0
20260508204235 55 0.0 0.0 0.00 0.00 0.00 72 946.0
20260508203936 55 0.0 0.0 0.00 0.00 0.00 72 946.0
20260508203636 55 0.0 0.0 0.00 0.00 0.00 72 946.0
20260508203336 55 0.0 0.0 0.00 0.00 0.00 72 946.0
20260508203036 55 0.0 0.0 0.00 0.00 0.00 72 946.0
20260508202736 55 0.0 0.0 0.00 0.00 0.00 72 946.0
20260508202435 55 0.0 0.0 0.00 0.00 0.00 72 946.0
20260508202136 56 0.0 0.0 0.00 0.00 0.00 72 946.5
20260508201835 56 0.0 0.0 0.00 0.00 0.00 72 946.5
20260508200936 56 0.0 0.0 0.00 0.00 0.00 71 946.0
20260508200635 56 0.0 0.0 0.00 0.00 0.00 71 946.0
20260508200336 56 0.0 0.0 0.00 0.00 0.00 70 946.0
20260508200036 56 0.0 0.0 0.00 0.00 0.00 70 946.0
20260508195736 56 0.0 0.0 0.00 0.00 0.00 70 946.0
20260508195436 56 0.0 0.0 0.00 0.00 0.00 70 946.0
20260508194835 56 0.0 0.0 0.00 0.00 0.00 70 946.0
20260508194535 57 0.0 0.0 0.00 0.00 0.00 71 945.0
20260508194236 57 0.0 0.0 0.00 0.00 0.00 71 945.0
20260508193935 57 0.0 0.0 0.00 0.00 0.00 71 945.0
20260508193636 57 0.0 0.0 0.00 0.00 0.00 71 945.0
20260508193036 57 0.0 0.0 0.00 0.00 0.00 71 945.0
20260508192736 57 0.0 0.0 0.00 0.00 0.00 70 945.9
20260508192435 57 0.0 0.0 0.00 0.00 0.00 70 945.9
20260508191835 58 0.0 0.0 0.00 0.00 0.00 69 945.0
20260508191536 58 0.0 0.0 0.00 0.00 0.00 69 945.0
20260508190936 58 0.0 0.0 0.00 0.00 0.00 66 945.0
20260508190636 58 0.0 0.0 0.00 0.00 0.00 66 945.0
20260508190336 58 0.0 0.0 0.00 0.00 0.00 66 945.0
20260508190036 59 0.0 0.0 0.00 0.00 0.00 61 945.0
20260508185436 59 0.0 0.0 0.00 0.00 0.00 61 945.0
20260508185136 60 0.0 0.0 0.00 0.00 0.00 59 945.0
20260508184835 60 0.0 0.0 0.00 0.00 0.00 59 945.0
20260508184536 60 0.0 0.0 0.00 0.00 0.00 59 945.0
20260508184235 61 0.0 0.0 0.00 0.00 0.00 53 945.0
20260508183935 61 0.0 0.0 0.00 0.00 0.00 53 945.0
20260508183636 62 0.0 0.0 0.00 0.00 0.00 50 945.1
20260508183336 62 0.0 0.0 0.00 0.00 0.00 50 945.1
20260508183036 62 0.0 0.0 0.00 0.00 0.00 50 945.1
20260508182735 62 0.0 0.0 0.00 0.00 0.00 50 945.1
20260508182436 62 0.0 0.0 0.00 0.00 0.00 49 945.0
20260508182136 62 0.0 0.0 0.00 0.00 0.00 49 945.0
20260508181836 62 0.0 0.0 0.00 0.00 0.00 49 945.0
20260508181536 63 0.0 0.0 0.00 0.00 0.00 51 945.0
20260508181235 63 0.0 0.0 0.00 0.00 0.00 51 945.0
20260508180336 63 0.0 0.0 0.00 0.00 0.00 51 945.0
20260508180036 63 0.0 0.0 0.00 0.00 0.00 51 945.0
20260508175736 63 0.0 0.0 0.00 0.00 0.00 51 945.0
20260508175436 63 0.0 0.0 0.00 0.00 0.00 51 945.0
20260508175136 63 0.0 0.0 0.00 0.00 0.00 51 945.0
20260508174836 63 0.0 0.0 0.00 0.00 0.00 51 945.0
20260508174536 63 0.0 0.0 0.00 0.00 0.00 51 945.0
20260508174236 63 0.0 0.0 0.00 0.00 0.00 51 945.0
20260508173935 63 0.0 0.0 0.00 0.00 0.00 51 945.0
20260508173636 63 0.0 0.0 0.00 0.00 0.00 51 945.0
20260508172736 64 0.0 0.0 0.00 0.00 0.00 51 944.0
20260508172436 64 0.0 0.0 0.00 0.00 0.00 51 944.0
20260508172136 64 0.0 0.0 0.00 0.00 0.00 51 944.0
20260508171835 64 0.0 0.0 0.00 0.00 0.00 51 944.0
20260508171535 64 0.0 0.0 0.00 0.00 0.00 51 944.0
20260508171236 64 0.0 0.0 0.00 0.00 0.00 51 944.0
20260508170936 64 0.0 0.0 0.00 0.00 0.00 51 944.0
20260508170635 64 0.0 0.0 0.00 0.00 0.00 51 944.0
20260508170335 64 0.0 0.0 0.00 0.00 0.00 51 944.0
20260508170036 64 0.0 0.0 0.00 0.00 0.00 51 944.0